Lid_Strength_Index
9 8 8 9 9 8 9 8 10 10 10 9 9 9 8 6 5 5 5 4 4 3 3 3 3 3 3 4 3 3 4 4 5 5 5 5 5 5 4 4 4 3 2 2
10 8 8 9 8 8 8 8 8 8 10 8 7 7 7 6 6 6 5 4 4 3 3 3 4 3 4 4 5 5 5 5 5 5 4 4 4 3 3 2 2 2 2 2
15 9 9 11 9 8 8 8 7 11 9 7 9 8 7 6 6 6 5 4 3 3 3 3 3 3 4 3 4 4 4 5 4 4 4 3 3 3 3 2 2 3 3 3
12 10 15 8 6 6 8 8 6 7 7 7 7 7 6 5 6 5 4 4 3 3 2 3 2 3 3 2 3 4 4 5 4 4 3 3 3 3 3 3 3 3 3 3
14 13 10 8 7 7 8 8 6 7 6 7 6 6 7 6 4 4 3 3 3 3 3 3 3 3 3 4 5 5 5 4 4 3 3 3 4 4 4 4 4 4 4 3
11 16 17 9 6 5 5 9 5 6 7 7 7 11 9 6 4 4 4 5 5 6 5 5 4 4 4 5 6 6 5 4 3 3 3 4 4 5 5 4 4 4 4 3
12 15 13 8 6 6 11 9 5 6 6 6 7 7 9 7 6 6 6 6 6 5 6 6 5 5 5 6 6 5 4 4 3 3 4 5 5 5 5 4 4 4 4 4
11 15 17 7 7 9 8 5 5 5 5 6 6 8 10 10 10 8 8 6 7 6 6 6 5 5 6 6 5 4 4 4 4 4 5 5 6 5 5 4 5 5 4 4
13 13 8 6 6 5 5 5 5 5 5 5 6 9 9 10 10 10 9 6 6 7 7 6 6 5 5 5 5 4 4 4 4 4 5 5 5 5 5 5 6 5 5 5
10 9 8 6 5 5 4 5 5 4 4 4 5 6 8 9 9 8 6 6 6 6 7 7 6 5 5 5 4 4 5 5 4 4 6 5 5 5 5 6 6 6 7 7
10 8 7 6 6 5 4 4 5 4 4 4 4 6 6 8 8 7 6 5 5 6 6 6 6 6 5 5 4 4 5 5 5 5 5 6 6 5 5 6 8 7 9 9
12 7 7 7 5 4 5 5 4 5 4 4 5 6 6 6 6 7 7 6 6 6 6 7 6 6 5 5 5 5 5 5 6 6 6 7 6 5 9 9 10 11 11 11
8 6 7 7 7 5 5 5 5 5 5 6 6 7 5 5 5 6 5 6 7 7 7 6 6 6 6 5 5 7 6 6 6 6 7 6 6 6 5 8 9 11 11 11
6 6 8 9 10 8 8 7 7 8 8 9 8 7 5 6 6 7 7 7 7 7 7 7 6 7 7 6 7 7 6 10 7 7 6 6 7 6 5 7 8 7 10 11
8 7 7 8 9 10 10 10 10 10 9 9 8 8 7 7 7 8 9 8 8 9 8 7 7 8 7 7 7 7 6 7 7 5 7 8 7 7 7 8 9 8 8 9
9 9 9 9 10 10 10 10 10 10 10 10 9 9 8 8 8 9 9 9 9 10 9 9 9 9 8 8 8 7 7 11 9 6 6 7 7 8 9 10 10 10 11 12
10 11 10 10 9 9 9 8 9 9 9 9 10 9 10 9 9 9 10 10 10 10 11 11 11 10 9 8 8 7 7 7 12 6 8 8 9 10 11 12 11 11 11 12
7 8 8 9 10 10 10 9 9 9 9 10 10 10 10 10 10 12 13 13 11 11 11 11 10 10 9 8 8 7 7 7 7 8 9 9 9 10 12 12 11 10 11 11
9 9 9 10 9 9 10 10 10 10 10 10 10 13 12 13 14 14 13 13 12 13 12 11 13 11 10 11 9 7 8 8 8 9 10 11 10 11 12 12 12 11 10 10
9 9 9 10 10 10 11 10 10 11 11 11 11 14 15 15 15 14 13 13 13 13 11 12 12 11 10 10 11 8 9 9 9 10 11 11 11 12 13 14 13 12 11 9
9 9 10 10 10 10 10 11 11 11 11 11 14 15 14 13 12 12 13 12 12 11 11 11 11 11 10 11 10 10 9 9 10 11 11 12 11 11 12 13 12 11 11 10
9 9 9 10 10 10 9 9 11 11 11 12 13 13 12 13 13 13 13 13 11 13 11 11 11 13 12 12 10 10 9 10 10 10 11 10 11 10 10 10 10 10 10 10
7 8 8 9 9 9 10 11 11 12 12 12 12 12 13 13 13 13 13 12 11 12 11 11 13 13 13 10 10 10 9 9 9 10 11 10 10 9 10 10 10 11 10 10
7 7 7 7 7 10 12 12 11 12 12 12 12 12 12 13 13 12 12 13 13 12 12 12 12 13 12 9 9 9 9 8 8 9 9 11 9 9 10 10 11 11 10 11
6 7 7 8 9 11 11 11 11 11 12 13 13 12 12 12 12 12 11 11 13 12 11 13 13 13 9 8 8 9 9 9 9 8 9 9 9 10 10 11 12 11 11 11
5 6 7 8 9 10 10 10 11 10 10 12 11 11 11 11 11 11 11 12 11 12 10 9 9 9 8 8 9 9 9 9 10 10 10 10 10 11 11 11 11 12 12 11
5 7 6 8 9 9 9 9 10 10 10 10 11 11 11 11 11 11 12 11 11 11 10 10 9 10 9 9 9 9 10 11 12 11 10 11 11 12 12 12 12 11 11 11